South Haven, MI

7:39 AM EDT on October 21, 2017 (GMT -0400)
South Haven

Weather History for KLWA - April, 2014

Change the Weather History Date:

Friday, April 4, 2014

  Actual Average (KBEH) Record (KBEH)
Temperature  
Mean Temperature 40 °F -  
Max Temperature 46 °F 50 °F 75 °F (1956)
Min Temperature 33 °F 32 °F 15 °F (1993)
Degree Days  
Heating Degree Days 25    
Moisture  
Dew Point 36 °F    
Average Humidity 91    
Maximum Humidity 99    
Minimum Humidity 81    
Precipitation  
Precipitation 0.00 in - - ()
Sea Level Pressure  
Sea Level Pressure 29.61 in    
Wind  
Wind Speed 13 mph (SSW)    
Max Wind Speed 21 mph    
Max Gust Speed 34 mph    
Visibility 6 miles    
Events Rain , Snow    
Averages and records for this station are not official NWS values.
T = Trace of Precipitation, MM = Missing Value Source: NWS Daily Summary

Daily Weather History Graph

Daily Weather History Graph

Search for Another Location

Airport or City:

Trip Planner

Search our weather history database for the weather conditions in past years. The results will help you decide how hot, cold, wet, or windy it might be!

Date:

Astronomy

Apr. 04, 2014 Rise Set
Actual Time 7:22 AM EDT 8:14 PM EDT
Civil Twilight 6:53 AM EDT 8:42 PM EDT
Nautical Twilight 6:20 AM EDT 9:16 PM EDT
Astronomical Twilight 5:44 AM EDT 9:52 PM EDT
Moon 10:34 AM EDT (4/4) 12:36 AM EDT (4/4)
Length of Visible Light 13h 48m
Length of Day
12h 51m
Waxing Crescent, 25% of the Moon is Illuminated
Apr 4
Waxing Crescent
Apr 7
First Quarter
Apr 15
Full
Apr 22
Last Quarter
Apr 29
New

Hourly Weather History & Observations

Time (EDT) Temp. Windchill Dew Point Humidity Pressure Visibility Wind Dir Wind Speed Gust Speed Precip Events Conditions
12:15 AM 37.6 °F 28.8 °F 33.8 °F 86% 29.71 in 10.0 mi East 15.0 mph 21.9 mph N/A   Overcast
12:35 AM 37.6 °F 29.6 °F 34.2 °F 87% 29.69 in 10.0 mi East 12.7 mph 23.0 mph N/A   Overcast
12:55 AM 37.6 °F 29.6 °F 34.7 °F 89% 29.71 in 10.0 mi East 12.7 mph 16.1 mph N/A   Overcast
1:15 AM 37.6 °F 29.6 °F 34.9 °F 90% 29.68 in 10.0 mi East 12.7 mph 23.0 mph N/A   Overcast
1:35 AM 37.9 °F 30.5 °F 35.6 °F 91% 29.71 in 7.0 mi ESE 11.5 mph - N/A   Overcast
1:55 AM 37.9 °F 30.5 °F 35.6 °F 91% 29.70 in 10.0 mi SE 11.5 mph 16.1 mph N/A   Overcast
2:15 AM 37.9 °F 32.7 °F 35.8 °F 92% 29.70 in 7.0 mi SE 6.9 mph - N/A   Overcast
2:36 AM 37.9 °F 31.5 °F 36.0 °F 93% 29.70 in 7.0 mi SE 9.2 mph 17.3 mph N/A   Overcast
2:55 AM 37.8 °F 31.3 °F 36.1 °F 94% 29.71 in 5.0 mi SE 9.2 mph 18.4 mph N/A   Overcast
3:15 AM 37.8 °F 30.7 °F 36.5 °F 95% 29.69 in 5.0 mi SE 10.4 mph - N/A   Overcast
3:36 AM 37.6 °F 30.5 °F 36.5 °F 96% 29.68 in 4.0 mi SE 10.4 mph 16.1 mph N/A   Overcast
3:55 AM 37.6 °F 31.0 °F 36.7 °F 97% 29.66 in 3.0 mi SE 9.2 mph 17.3 mph N/A   Overcast
4:15 AM 37.4 °F 30.3 °F 36.7 °F 97% 29.62 in 2.5 mi ESE 10.4 mph 18.4 mph N/A   Overcast
4:35 AM 37.4 °F 31.4 °F 36.7 °F 97% 29.60 in 2.5 mi ESE 8.1 mph 17.3 mph N/A   Overcast
4:55 AM 37.4 °F 30.8 °F 36.7 °F 97% 29.59 in 3.0 mi ESE 9.2 mph - N/A   Overcast
5:16 AM 37.4 °F 30.3 °F 36.9 °F 98% 29.56 in 2.5 mi ESE 10.4 mph - N/A   Overcast
5:35 AM 37.4 °F 29.3 °F 36.9 °F 98% 29.54 in 2.0 mi ESE 12.7 mph 20.7 mph N/A   Overcast
5:55 AM 37.4 °F 30.8 °F 36.9 °F 98% 29.53 in 1.8 mi SE 9.2 mph - N/A   Overcast
6:16 AM 37.6 °F 31.0 °F 37.0 °F 98% 29.52 in 1.8 mi ESE 9.2 mph - N/A   Overcast
6:35 AM 37.6 °F 30.5 °F 37.4 °F 99% 29.52 in 2.5 mi ESE 10.4 mph - N/A   Overcast
6:56 AM 37.9 °F 30.5 °F 37.4 °F 98% 29.50 in 3.0 mi ESE 11.5 mph - N/A   Overcast
7:15 AM 37.9 °F 31.5 °F 37.4 °F 98% 29.50 in 3.0 mi ESE 9.2 mph - N/A   Overcast
7:36 AM 38.3 °F 32.5 °F 37.8 °F 98% 29.52 in 2.0 mi SE 8.1 mph - N/A   Overcast
7:55 AM 38.7 °F 33.6 °F 38.3 °F 99% 29.50 in 1.5 mi SE 6.9 mph - N/A   Overcast
8:15 AM 39.2 °F 33.0 °F 38.8 °F 99% 29.49 in 1.5 mi SE 9.2 mph - N/A   Overcast
8:35 AM 39.4 °F 33.2 °F 39.2 °F 99% 29.49 in 2.0 mi SE 9.2 mph - N/A   Overcast
8:55 AM 40.1 °F 34.1 °F 39.6 °F 98% 29.47 in 1.2 mi SE 9.2 mph - N/A   Overcast
9:16 AM 40.6 °F 36.0 °F 40.3 °F 99% 29.47 in 1.2 mi South 6.9 mph - N/A Rain Light Rain
9:35 AM 41.4 °F 36.2 °F 41.0 °F 99% 29.45 in 2.0 mi SSE 8.1 mph - N/A Rain Light Rain
9:55 AM 42.3 °F 37.9 °F 41.9 °F 99% 29.44 in 2.0 mi South 6.9 mph - N/A Rain Rain
10:16 AM 43.7 °F 39.7 °F 43.2 °F 98% 29.44 in 1.8 mi SSW 6.9 mph - N/A Rain Light Rain
10:35 AM 46.0 °F 39.9 °F 45.7 °F 99% 29.45 in 1.5 mi SW 13.8 mph 18.4 mph N/A Rain Rain
10:55 AM 46.9 °F - 46.4 °F 98% 29.45 in 2.0 mi SW 17.3 mph 27.6 mph N/A Rain Light Rain
11:15 AM 45.9 °F 39.1 °F 45.1 °F 97% 29.46 in 1.5 mi WSW 16.1 mph 27.6 mph N/A   Overcast
11:35 AM 45.0 °F 38.2 °F 44.1 °F 97% 29.47 in 5.0 mi WSW 15.0 mph 24.2 mph N/A   Light Drizzle
11:56 AM 44.8 °F 38.3 °F 43.7 °F 96% 29.47 in 5.0 mi WSW 13.8 mph - N/A   Overcast
12:15 PM 44.8 °F 39.9 °F 43.5 °F 95% 29.47 in 4.0 mi SW 9.2 mph - N/A   Overcast
12:35 PM 44.6 °F 38.8 °F 43.5 °F 96% 29.48 in 3.0 mi SW 11.5 mph 16.1 mph N/A   Overcast
12:56 PM 43.5 °F 35.5 °F 41.5 °F 93% 29.47 in 5.0 mi WSW 18.4 mph 28.8 mph N/A   Overcast
1:15 PM 41.7 °F 34.1 °F 39.4 °F 91% 29.48 in 7.0 mi WSW 15.0 mph 26.5 mph N/A   Overcast
1:35 PM 39.7 °F 31.5 °F 37.6 °F 92% 29.49 in 7.0 mi WSW 15.0 mph 23.0 mph N/A   Overcast
1:55 PM 39.4 °F 30.4 °F 37.0 °F 91% 29.49 in 10.0 mi WSW 17.3 mph 24.2 mph N/A   Overcast
2:15 PM 39.4 °F 30.1 °F 36.5 °F 89% 29.50 in 10.0 mi WSW 18.4 mph 27.6 mph N/A   Overcast
2:55 PM 39.2 °F 29.8 °F 35.1 °F 85% 29.52 in 10.0 mi WSW 18.4 mph 31.1 mph N/A   Overcast
3:15 PM 38.7 °F 28.6 °F 34.3 °F 84% 29.52 in 10.0 mi WSW 20.7 mph 34.5 mph N/A   Overcast
3:36 PM 38.3 °F 28.7 °F 34.2 °F 85% 29.54 in 10.0 mi WSW 18.4 mph 33.4 mph N/A   Overcast
3:55 PM 37.8 °F 28.3 °F 33.6 °F 85% 29.55 in 10.0 mi WSW 17.3 mph 31.1 mph N/A   Overcast
4:15 PM 37.4 °F 27.5 °F 33.1 °F 84% 29.56 in 10.0 mi WSW 18.4 mph 25.3 mph N/A   Overcast
4:35 PM 37.4 °F 27.8 °F 32.9 °F 84% 29.57 in 10.0 mi WSW 17.3 mph 27.6 mph N/A   Overcast
4:55 PM 36.9 °F 28.2 °F 32.7 °F 85% 29.59 in 10.0 mi WSW 13.8 mph 25.3 mph N/A   Overcast
5:16 PM 37.0 °F 26.4 °F 32.2 °F 83% 29.60 in 10.0 mi WSW 20.7 mph 26.5 mph N/A   Overcast
5:35 PM 36.9 °F 27.8 °F 32.0 °F 83% 29.61 in 10.0 mi WSW 15.0 mph 23.0 mph N/A   Overcast
5:55 PM 36.7 °F 26.9 °F 32.0 °F 83% 29.62 in 10.0 mi West 17.3 mph 24.2 mph N/A   Overcast
6:15 PM 36.9 °F 26.5 °F 32.0 °F 83% 29.65 in 10.0 mi West 19.6 mph 26.5 mph N/A   Overcast
6:35 PM 36.7 °F 27.2 °F 31.8 °F 83% 29.66 in 10.0 mi West 16.1 mph 25.3 mph N/A   Overcast
6:55 PM 36.5 °F 26.3 °F 31.8 °F 83% 29.68 in 10.0 mi West 18.4 mph 25.3 mph N/A   Overcast
7:15 PM 35.6 °F 25.9 °F 32.7 °F 89% 29.69 in 4.0 mi West 16.1 mph 23.0 mph N/A   Light Drizzle
7:35 PM 35.2 °F 26.6 °F 32.0 °F 88% 29.71 in 10.0 mi West 12.7 mph 19.6 mph N/A   Overcast
7:55 PM 35.1 °F 25.9 °F 32.0 °F 89% 29.72 in 10.0 mi West 13.8 mph 20.7 mph N/A   Overcast
8:15 PM 35.4 °F 26.0 °F 30.7 °F 83% 29.73 in 10.0 mi West 15.0 mph 23.0 mph N/A   Overcast
8:35 PM 35.2 °F 26.2 °F 30.6 °F 83% 29.74 in 10.0 mi West 13.8 mph 21.9 mph N/A   Overcast
8:55 PM 35.2 °F 25.8 °F 30.2 °F 82% 29.75 in 10.0 mi West 15.0 mph 27.6 mph N/A   Overcast
9:15 PM 35.6 °F 25.9 °F 30.2 °F 81% 29.77 in 10.0 mi West 16.1 mph 26.5 mph N/A   Overcast
9:35 PM 35.2 °F 25.8 °F 30.7 °F 84% 29.78 in 10.0 mi West 15.0 mph 21.9 mph N/A   Overcast
9:55 PM 34.9 °F 25.3 °F 31.1 °F 86% 29.80 in 10.0 mi West 15.0 mph 24.2 mph N/A   Overcast
10:15 PM 34.3 °F 23.9 °F 32.0 °F 91% 29.81 in 10.0 mi WNW 17.3 mph 26.5 mph N/A   Overcast
10:36 PM 34.7 °F 25.9 °F 31.1 °F 87% 29.83 in 7.0 mi West 12.7 mph 20.7 mph N/A Snow Light Snow
10:55 PM 34.5 °F 26.2 °F 31.5 °F 89% 29.83 in 10.0 mi WNW 11.5 mph 20.7 mph N/A   Overcast
11:15 PM 34.3 °F 24.2 °F 29.8 °F 84% 29.85 in 10.0 mi WNW 16.1 mph 28.8 mph N/A   Overcast
11:36 PM 34.2 °F 24.8 °F 29.3 °F 82% 29.86 in 10.0 mi WNW 13.8 mph 26.5 mph N/A   Overcast
11:55 PM 33.8 °F 23.9 °F 29.8 °F 85% 29.87 in 10.0 mi WNW 15.0 mph 24.2 mph N/A   Overcast